| time (UTC) | temp C | wind direction | speed KPH | gust KPH | rain 1hr cm | rain 24hr cm | rain mn cm | humidity % | barometer mb |
| 20260905171156 | 20 | 224 | 1.6 | 0.0 | 0.00 | 0.00 | 0.36 | 63 | 1021.3 |
| 20260905170654 | 20 | 264 | 1.6 | 0.0 | 0.00 | 0.00 | 0.36 | 62 | 1021.3 |
| 20260905170153 | 20 | 360 | 3.2 | 0.0 | 0.00 | 0.00 | 0.36 | 62 | 1021.3 |
| 20260905165657 | 20 | 231 | 3.2 | 0.0 | 0.00 | 0.00 | 0.36 | 62 | 1021.3 |
| 20260905165202 | 20 | 360 | 1.6 | 0.0 | 0.00 | 0.00 | 0.36 | 61 | 1021.3 |
| 20260905164701 | 20 | 186 | 1.6 | 0.0 | 0.00 | 0.00 | 0.36 | 61 | 1021.3 |
| 20260905164145 | 20 | 178 | 4.8 | 0.0 | 0.00 | 0.00 | 0.36 | 61 | 1021.0 |
| 20260905163707 | 21 | 360 | 4.8 | 0.0 | 0.00 | 0.00 | 0.36 | 60 | 1021.0 |
| 20260905163150 | 21 | 190 | 3.2 | 0.0 | 0.00 | 0.00 | 0.36 | 63 | 1021.0 |
| 20260905162650 | 21 | 153 | 3.2 | 0.0 | 0.00 | 0.00 | 0.36 | 64 | 1020.9 |
| 20260905162152 | 21 | 225 | 6.4 | 0.0 | 0.00 | 0.00 | 0.36 | 64 | 1020.9 |
| 20260905161655 | 21 | 360 | 6.4 | 0.0 | 0.00 | 0.00 | 0.36 | 65 | 1020.9 |
| 20260905161200 | 22 | 272 | 4.8 | 0.0 | 0.00 | 0.00 | 0.33 | 65 | 1021.4 |
| 20260905160706 | 22 | 146 | 3.2 | 0.0 | 0.00 | 0.00 | 0.33 | 65 | 1021.4 |
| 20260905160149 | 22 | 171 | 3.2 | 0.0 | 0.00 | 0.00 | 0.33 | 64 | 1021.4 |
| 20260905155654 | 22 | 184 | 3.2 | 0.0 | 0.00 | 0.00 | 0.33 | 64 | 1021.2 |
| 20260905155158 | 22 | 195 | 1.6 | 0.0 | 0.00 | 0.00 | 0.33 | 63 | 1021.2 |
| 20260905154702 | 23 | 175 | 1.6 | 0.0 | 0.00 | 0.00 | 0.33 | 62 | 1021.2 |
| 20260905154148 | 23 | 163 | 1.6 | 0.0 | 0.00 | 0.00 | 0.33 | 62 | 1021.3 |
| 20260905153659 | 23 | 227 | 3.2 | 0.0 | 0.00 | 0.00 | 0.33 | 62 | 1021.3 |
| 20260905153145 | 23 | 360 | 3.2 | 0.0 | 0.00 | 0.00 | 0.33 | 60 | 1021.3 |
| 20260905152654 | 23 | 360 | 4.8 | 0.0 | 0.00 | 0.00 | 0.33 | 59 | 1021.2 |
| 20260905152203 | 23 | 256 | 4.8 | 0.0 | 0.00 | 0.00 | 0.33 | 57 | 1021.2 |
| 20260905151652 | 23 | 234 | 3.2 | 0.0 | 0.00 | 0.00 | 0.33 | 58 | 1021.2 |
| 20260905151154 | 23 | 360 | 4.8 | 0.0 | 0.00 | 0.00 | 0.33 | 58 | 1021.1 |
| 20260905150702 | 23 | 217 | 6.4 | 0.0 | 0.00 | 0.00 | 0.33 | 57 | 1021.1 |
| 20260905150151 | 23 | 360 | 4.8 | 0.0 | 0.00 | 0.00 | 0.33 | 56 | 1021.1 |
| 20260905145702 | 23 | 360 | 6.4 | 0.0 | 0.00 | 0.00 | 0.33 | 55 | 1021.3 |
| 20260905145150 | 23 | 221 | 4.8 | 0.0 | 0.00 | 0.00 | 0.33 | 55 | 1021.3 |
| 20260905144655 | 23 | 183 | 3.2 | 0.0 | 0.00 | 0.00 | 0.33 | 56 | 1021.3 |
| 20260905144204 | 22 | 234 | 9.7 | 0.0 | 0.00 | 0.00 | 0.33 | 56 | 1021.5 |
| 20260905143644 | 22 | 198 | 11.3 | 0.0 | 0.00 | 0.00 | 0.33 | 57 | 1021.5 |
| 20260905143145 | 22 | 360 | 9.7 | 0.0 | 0.00 | 0.00 | 0.33 | 55 | 1021.5 |
| 20260905142653 | 22 | 360 | 9.7 | 0.0 | 0.00 | 0.00 | 0.33 | 55 | 1021.5 |
| 20260905142158 | 22 | 254 | 9.7 | 0.0 | 0.00 | 0.00 | 0.33 | 55 | 1021.5 |
| 20260905141700 | 22 | 286 | 9.7 | 0.0 | 0.00 | 0.00 | 0.33 | 57 | 1021.5 |
| 20260905141151 | 22 | 279 | 9.7 | 0.0 | 0.00 | 0.00 | 0.33 | 58 | 1021.4 |
| 20260905140653 | 22 | 302 | 9.7 | 0.0 | 0.00 | 0.00 | 0.33 | 58 | 1021.4 |
| 20260905140159 | 22 | 288 | 11.3 | 0.0 | 0.00 | 0.00 | 0.33 | 56 | 1021.4 |
| 20260905135645 | 22 | 229 | 11.3 | 0.0 | 0.00 | 0.00 | 0.33 | 53 | 1021.6 |
| 20260905135154 | 22 | 360 | 11.3 | 0.0 | 0.00 | 0.00 | 0.33 | 56 | 1021.6 |
| 20260905134659 | 21 | 290 | 11.3 | 0.0 | 0.00 | 0.00 | 0.33 | 56 | 1021.6 |
| 20260905134202 | 22 | 268 | 9.7 | 0.0 | 0.00 | 0.00 | 0.33 | 57 | 1021.5 |
| 20260905133705 | 22 | 288 | 9.7 | 0.0 | 0.00 | 0.00 | 0.33 | 53 | 1021.5 |
| 20260905133204 | 22 | 269 | 9.7 | 0.0 | 0.00 | 0.00 | 0.33 | 55 | 1021.5 |
| 20260905132649 | 22 | 319 | 6.4 | 0.0 | 0.00 | 0.00 | 0.33 | 54 | 1021.5 |
| 20260905132154 | 22 | 200 | 6.4 | 0.0 | 0.00 | 0.00 | 0.33 | 55 | 1021.5 |
| 20260905131704 | 22 | 171 | 8.0 | 0.0 | 0.00 | 0.00 | 0.33 | 55 | 1021.5 |
| 20260905131205 | 21 | 271 | 8.0 | 0.0 | 0.00 | 0.00 | 0.33 | 57 | 1021.5 |
| 20260905130655 | 21 | 247 | 8.0 | 0.0 | 0.00 | 0.00 | 0.33 | 57 | 1021.5 |
| 20260905130148 | 21 | 286 | 11.3 | 0.0 | 0.00 | 0.00 | 0.33 | 61 | 1021.5 |
| 20260905125703 | 21 | 360 | 12.9 | 0.0 | 0.00 | 0.00 | 0.33 | 64 | 1021.4 |
| 20260905125156 | 21 | 300 | 11.3 | 0.0 | 0.00 | 0.00 | 0.33 | 63 | 1021.4 |
| 20260905124651 | 21 | 360 | 11.3 | 0.0 | 0.00 | 0.00 | 0.33 | 64 | 1021.4 |
| 20260905124156 | 21 | 275 | 11.3 | 0.0 | 0.00 | 0.00 | 0.33 | 64 | 1021.6 |
| 20260905123704 | 20 | 279 | 9.7 | 0.0 | 0.00 | 0.00 | 0.33 | 65 | 1021.6 |
| 20260905123152 | 20 | 276 | 11.3 | 0.0 | 0.00 | 0.00 | 0.33 | 64 | 1021.6 |
| 20260905122704 | 20 | 273 | 12.9 | 0.0 | 0.00 | 0.00 | 0.33 | 70 | 1021.6 |
| 20260905122148 | 20 | 273 | 12.9 | 0.0 | 0.00 | 0.00 | 0.33 | 69 | 1021.6 |
| 20260905121653 | 20 | 360 | 8.0 | 0.0 | 0.00 | 0.00 | 0.33 | 70 | 1021.6 |
| 20260905121201 | 20 | 273 | 8.0 | 0.0 | 0.00 | 0.00 | 0.33 | 72 | 1021.5 |
| 20260905120703 | 20 | 291 | 4.8 | 0.0 | 0.00 | 0.00 | 0.33 | 72 | 1021.5 |
| 20260905120201 | 19 | 133 | 4.8 | 0.0 | 0.00 | 0.00 | 0.33 | 73 | 1021.5 |
| 20260905115647 | 19 | 280 | 6.4 | 0.0 | 0.00 | 0.00 | 0.33 | 75 | 1021.7 |
| 20260905115155 | 18 | 280 | 8.0 | 0.0 | 0.00 | 0.00 | 0.33 | 74 | 1021.7 |
| 20260905114656 | 18 | 360 | 6.4 | 0.0 | 0.00 | 0.00 | 0.33 | 77 | 1021.7 |
| 20260905114159 | 18 | 309 | 6.4 | 0.0 | 0.00 | 0.00 | 0.33 | 77 | 1021.8 |
| 20260905113651 | 18 | 360 | 6.4 | 0.0 | 0.00 | 0.00 | 0.33 | 77 | 1021.8 |
| 20260905113148 | 18 | 360 | 3.2 | 0.0 | 0.00 | 0.00 | 0.33 | 80 | 1021.8 |
| 20260905112650 | 17 | 247 | 4.8 | 0.0 | 0.00 | 0.00 | 0.33 | 79 | 1021.8 |
| 20260905112155 | 17 | 178 | 6.4 | 0.0 | 0.00 | 0.00 | 0.33 | 81 | 1021.8 |
| 20260905111701 | 17 | 360 | 3.2 | 0.0 | 0.00 | 0.00 | 0.33 | 82 | 1021.8 |
| 20260905111206 | 17 | 360 | 3.2 | 0.0 | 0.00 | 0.00 | 0.33 | 82 | 1021.8 |
| 20260905110651 | 16 | 225 | 1.6 | 0.0 | 0.00 | 0.00 | 0.33 | 82 | 1021.8 |
| 20260905110202 | 17 | 149 | 0.0 | 0.0 | 0.00 | 0.00 | 0.33 | 83 | 1021.8 |
| 20260905105645 | 16 | 238 | 0.0 | 0.0 | 0.00 | 0.00 | 0.33 | 84 | 1020.9 |
| 20260905105154 | 16 | 230 | 0.0 | 0.0 | 0.00 | 0.00 | 0.33 | 84 | 1020.9 |
| 20260905104658 | 16 | 360 | 0.0 | 0.0 | 0.00 | 0.00 | 0.33 | 84 | 1020.9 |
| 20260905104201 | 16 | 198 | 0.0 | 0.0 | 0.00 | 0.00 | 0.33 | 84 | 1020.9 |
| 20260905103659 | 16 | 196 | 0.0 | 0.0 | 0.00 | 0.00 | 0.33 | 85 | 1020.9 |
| 20260905103205 | 15 | 165 | 0.0 | 0.0 | 0.00 | 0.00 | 0.33 | 84 | 1020.9 |
| 20260905102650 | 15 | 295 | 0.0 | 0.0 | 0.00 | 0.00 | 0.33 | 84 | 1020.9 |
| 20260905102156 | 16 | 195 | 0.0 | 0.0 | 0.00 | 0.00 | 0.33 | 85 | 1020.9 |
| 20260905101655 | 15 | 192 | 1.6 | 0.0 | 0.00 | 0.00 | 0.33 | 84 | 1020.9 |
| 20260905101157 | 15 | 229 | 1.6 | 0.0 | 0.00 | 0.00 | 0.33 | 84 | 1021.0 |
| 20260905100707 | 15 | 0.0 | 0.0 | 0.00 | 0.00 | 0.33 | 85 | 1021.0 | |
| 20260905100152 | 15 | 0.0 | 0.0 | 0.00 | 0.00 | 0.33 | 86 | 1021.0 | |
| 20260905095705 | 15 | 182 | 0.0 | 0.0 | 0.00 | 0.00 | 0.33 | 86 | 1021.0 |
| 20260905095150 | 15 | 183 | 0.0 | 0.0 | 0.00 | 0.00 | 0.33 | 86 | 1021.0 |
| 20260905094654 | 15 | 190 | 1.6 | 0.0 | 0.00 | 0.00 | 0.33 | 85 | 1021.0 |
| 20260905094155 | 15 | 175 | 1.6 | 0.0 | 0.00 | 0.00 | 0.30 | 85 | 1021.0 |
| 20260905093701 | 15 | 171 | 1.6 | 0.0 | 0.00 | 0.00 | 0.28 | 84 | 1021.0 |
| 20260905093201 | 15 | 200 | 1.6 | 0.0 | 0.00 | 0.00 | 0.25 | 84 | 1021.0 |
| 20260905092705 | 15 | 130 | 1.6 | 0.0 | 0.00 | 0.00 | 0.23 | 84 | 1021.1 |
| 20260905092156 | 15 | 141 | 1.6 | 0.0 | 0.00 | 0.00 | 0.18 | 84 | 1021.1 |
| 20260905091659 | 15 | 155 | 1.6 | 0.0 | 0.00 | 0.00 | 0.15 | 84 | 1021.1 |
| 20260905091147 | 15 | 168 | 1.6 | 0.0 | 0.00 | 0.00 | 0.15 | 84 | 1020.9 |
| 20260905090653 | 15 | 159 | 1.6 | 0.0 | 0.00 | 0.00 | 0.15 | 83 | 1020.9 |
| 20260905090205 | 15 | 187 | 1.6 | 0.0 | 0.00 | 0.00 | 0.15 | 84 | 1020.9 |
| 20260905085701 | 14 | 113 | 1.6 | 0.0 | 0.00 | 0.00 | 0.15 | 83 | 1020.5 |
| 20260905085202 | 15 | 109 | 1.6 | 0.0 | 0.00 | 0.00 | 0.15 | 83 | 1020.5 |
| 20260905084655 | 15 | 156 | 1.6 | 0.0 | 0.00 | 0.00 | 0.15 | 83 | 1020.5 |
| 20260905084157 | 15 | 84 | 0.0 | 0.0 | 0.00 | 0.00 | 0.13 | 83 | 1021.1 |
| 20260905083706 | 15 | 343 | 0.0 | 0.0 | 0.00 | 0.00 | 0.13 | 83 | 1021.1 |
| 20260905083151 | 15 | 321 | 0.0 | 0.0 | 0.00 | 0.00 | 0.13 | 83 | 1021.1 |
| 20260905082657 | 14 | 321 | 1.6 | 0.0 | 0.00 | 0.00 | 0.13 | 82 | 1021.0 |
| 20260905082153 | 15 | 355 | 1.6 | 0.0 | 0.00 | 0.00 | 0.13 | 82 | 1021.0 |
| 20260905081651 | 15 | 355 | 1.6 | 0.0 | 0.00 | 0.00 | 0.10 | 81 | 1021.0 |
| 20260905081200 | 15 | 12 | 0.0 | 0.0 | 0.00 | 0.00 | 0.10 | 80 | 1020.4 |
| 20260905080706 | 15 | 56 | 0.0 | 0.0 | 0.00 | 0.00 | 0.08 | 79 | 1020.4 |
| 20260905080155 | 15 | 57 | 0.0 | 0.0 | 0.00 | 0.00 | 0.05 | 78 | 1020.4 |
| 20260905075706 | 15 | 347 | 0.0 | 0.0 | 0.00 | 0.00 | 0.05 | 76 | 1020.2 |
| 20260905075154 | 16 | 360 | 0.0 | 0.0 | 0.00 | 0.00 | 0.05 | 76 | 1020.2 |
| 20260905074700 | 16 | 32 | 0.0 | 0.0 | 0.00 | 0.00 | 0.05 | 75 | 1020.2 |
| 20260905074200 | 16 | 39 | 0.0 | 0.0 | 0.00 | 0.00 | 0.05 | 76 | 1019.7 |
| 20260905073708 | 16 | 69 | 0.0 | 0.0 | 0.00 | 0.00 | 0.05 | 76 | 1019.7 |
| 20260905073147 | 16 | 75 | 0.0 | 0.0 | 0.00 | 0.00 | 0.05 | 76 | 1019.7 |
| 20260905072648 | 16 | 126 | 0.0 | 0.0 | 0.00 | 0.00 | 0.05 | 78 | 1019.8 |
| 20260905072158 | 15 | 126 | 0.0 | 0.0 | 0.00 | 0.00 | 0.05 | 78 | 1019.8 |
| 20260905071706 | 15 | 131 | 0.0 | 0.0 | 0.00 | 0.00 | 0.05 | 78 | 1019.8 |
| 20260905071149 | 15 | 132 | 0.0 | 0.0 | 0.00 | 0.00 | 0.05 | 78 | 1019.7 |
| 20260905070649 | 15 | 132 | 0.0 | 0.0 | 0.00 | 0.00 | 0.05 | 78 | 1019.7 |
| 20260905070201 | 15 | 134 | 0.0 | 0.0 | 0.00 | 0.00 | 0.05 | 78 | 1019.7 |
| 20260905065707 | 15 | 134 | 0.0 | 0.0 | 0.00 | 0.00 | 0.05 | 77 | 1019.7 |
| 20260905065206 | 15 | 183 | 0.0 | 0.0 | 0.00 | 0.00 | 0.03 | 76 | 1019.7 |
| 20260905064657 | 15 | 360 | 0.0 | 0.0 | 0.00 | 0.00 | 0.03 | 76 | 1019.7 |
| 20260905064149 | 15 | 183 | 0.0 | 0.0 | 0.00 | 0.00 | 0.03 | 76 | 1019.7 |
| 20260905063700 | 15 | 184 | 0.0 | 0.0 | 0.00 | 0.00 | 0.03 | 75 | 1019.7 |
| 20260905063207 | 15 | 184 | 0.0 | 0.0 | 0.00 | 0.00 | 0.03 | 74 | 1019.7 |
| 20260905062705 | 15 | 184 | 0.0 | 0.0 | 0.00 | 0.00 | 0.03 | 74 | 1019.3 |
| 20260905062152 | 15 | 183 | 0.0 | 0.0 | 0.00 | 0.00 | 0.03 | 73 | 1019.3 |
| 20260905061653 | 15 | 183 | 0.0 | 0.0 | 0.00 | 0.00 | 0.00 | 73 | 1019.3 |
| 20260905061200 | 15 | 186 | 0.0 | 0.0 | 0.00 | 0.00 | 0.00 | 73 | 1019.5 |
| 20260905060652 | 16 | 188 | 0.0 | 0.0 | 0.00 | 0.00 | 0.00 | 72 | 1019.5 |
| 20260905060202 | 16 | 242 | 0.0 | 0.0 | 0.00 | 0.00 | 0.00 | 72 | 1019.5 |
| 20260905055652 | 16 | 259 | 0.0 | 0.0 | 0.00 | 0.00 | 0.00 | 72 | 1019.3 |
| 20260905055157 | 16 | 360 | 0.0 | 0.0 | 0.00 | 0.00 | 0.00 | 71 | 1019.3 |
| 20260905054658 | 16 | 360 | 0.0 | 0.0 | 0.00 | 0.00 | 0.00 | 71 | 1019.3 |
| 20260905054200 | 16 | 348 | 0.0 | 0.0 | 0.00 | 0.00 | 0.00 | 71 | 1019.8 |
| 20260905053650 | 16 | 348 | 0.0 | 0.0 | 0.00 | 0.00 | 0.00 | 70 | 1019.8 |
| 20260905053150 | 16 | 348 | 0.0 | 0.0 | 0.00 | 0.00 | 0.00 | 70 | 1019.8 |
| 20260905052658 | 16 | 348 | 0.0 | 0.0 | 0.00 | 0.00 | 0.00 | 69 | 1019.8 |
| 20260905052207 | 16 | 348 | 0.0 | 0.0 | 0.00 | 0.00 | 0.00 | 68 | 1019.8 |
| 20260905051653 | 16 | 346 | 0.0 | 0.0 | 0.00 | 0.00 | 0.00 | 67 | 1019.8 |
| 20260905051208 | 16 | 351 | 0.0 | 0.0 | 0.00 | 0.00 | 0.00 | 66 | 1019.8 |
| 20260905050656 | 16 | 346 | 0.0 | 0.0 | 0.00 | 0.00 | 0.00 | 65 | 1019.8 |
| 20260905050158 | 16 | 346 | 0.0 | 0.0 | 0.00 | 0.00 | 0.00 | 65 | 1019.8 |
| 20260905045658 | 16 | 346 | 0.0 | 0.0 | 0.00 | 0.00 | 0.00 | 64 | 1019.6 |
| 20260905045201 | 16 | 298 | 3.2 | 0.0 | 0.00 | 0.00 | 0.00 | 63 | 1019.6 |
| 20260905044655 | 17 | 344 | 3.2 | 0.0 | 0.00 | 0.00 | 0.00 | 63 | 1019.6 |
| 20260905044149 | 17 | 333 | 1.6 | 0.0 | 0.00 | 0.00 | 0.00 | 63 | 1019.2 |
| 20260905043704 | 17 | 360 | 3.2 | 0.0 | 0.00 | 0.00 | 0.00 | 63 | 1019.2 |
| 20260905043155 | 17 | 336 | 4.8 | 0.0 | 0.00 | 0.00 | 0.00 | 63 | 1019.2 |
| 20260905042659 | 17 | 22 | 3.2 | 0.0 | 0.00 | 0.00 | 0.00 | 63 | 1019.0 |
| 20260905042202 | 17 | 28 | 3.2 | 0.0 | 0.00 | 0.00 | 0.00 | 65 | 1019.0 |
| 20260905041703 | 17 | 10 | 1.6 | 0.0 | 0.00 | 0.00 | 0.00 | 65 | 1019.0 |
| 20260905041208 | 17 | 24 | 1.6 | 0.0 | 0.00 | 0.00 | 0.00 | 65 | 1018.2 |
| 20260905040650 | 17 | 41 | 1.6 | 0.0 | 0.00 | 0.00 | 0.00 | 66 | 1018.2 |
| 20260905040208 | 17 | 60 | 3.2 | 0.0 | 0.00 | 0.00 | 0.00 | 66 | 1018.2 |
| 20260905035652 | 18 | 40 | 4.8 | 0.0 | 0.00 | 0.00 | 0.00 | 66 | 1017.9 |
| 20260905035157 | 18 | 43 | 4.8 | 0.0 | 0.00 | 0.00 | 0.00 | 66 | 1017.9 |
| 20260905034656 | 18 | 320 | 3.2 | 0.0 | 0.00 | 0.00 | 0.00 | 67 | 1017.9 |
| 20260905034205 | 18 | 52 | 3.2 | 0.0 | 0.00 | 0.00 | 0.00 | 67 | 1017.7 |
| 20260905033651 | 18 | 19 | 1.6 | 0.0 | 0.00 | 0.00 | 0.00 | 68 | 1017.7 |
| 20260905033154 | 18 | 19 | 3.2 | 0.0 | 0.00 | 0.00 | 0.00 | 68 | 1017.7 |
| 20260905032658 | 18 | 349 | 3.2 | 0.0 | 0.00 | 0.00 | 0.00 | 67 | 1017.0 |
| 20260905032159 | 18 | 10 | 1.6 | 0.0 | 0.00 | 0.00 | 0.00 | 68 | 1017.0 |
| 20260905031702 | 18 | 15 | 1.6 | 0.0 | 0.00 | 0.00 | 0.00 | 68 | 1017.0 |
| 20260905031204 | 18 | 40 | 0.0 | 0.0 | 0.00 | 0.00 | 0.00 | 69 | 1016.7 |
| 20260905030649 | 18 | 24 | 0.0 | 0.0 | 0.00 | 0.00 | 0.00 | 69 | 1016.7 |
| 20260905030201 | 18 | 360 | 0.0 | 0.0 | 0.00 | 0.00 | 0.00 | 68 | 1016.7 |
| 20260905025704 | 18 | 252 | 0.0 | 0.0 | 0.00 | 0.00 | 0.00 | 67 | 1017.3 |
| 20260905025149 | 18 | 252 | 0.0 | 0.0 | 0.00 | 0.00 | 0.00 | 66 | 1017.3 |
| 20260905024652 | 18 | 252 | 0.0 | 0.0 | 0.00 | 0.00 | 0.00 | 66 | 1017.3 |
| 20260905024155 | 19 | 252 | 0.0 | 0.0 | 0.00 | 0.00 | 0.00 | 66 | 1016.8 |
| 20260905023655 | 19 | 252 | 0.0 | 0.0 | 0.00 | 0.00 | 0.00 | 66 | 1016.8 |
| 20260905023205 | 19 | 252 | 0.0 | 0.0 | 0.00 | 0.00 | 0.00 | 65 | 1016.8 |
| 20260905022701 | 19 | 252 | 0.0 | 0.0 | 0.00 | 0.00 | 0.00 | 65 | 1016.8 |
| 20260905022154 | 20 | 252 | 0.0 | 0.0 | 0.00 | 0.00 | 0.00 | 64 | 1016.8 |
| 20260905021650 | 20 | 252 | 0.0 | 0.0 | 0.00 | 0.00 | 0.00 | 64 | 1016.8 |
| 20260905021155 | 20 | 252 | 0.0 | 0.0 | 0.00 | 0.00 | 0.00 | 63 | 1016.8 |
| 20260905020655 | 20 | 252 | 0.0 | 0.0 | 0.00 | 0.00 | 0.00 | 63 | 1016.8 |
| 20260905015705 | 20 | 252 | 0.0 | 0.0 | 0.00 | 0.00 | 0.00 | 63 | 1016.6 |
| 20260905015208 | 20 | 252 | 0.0 | 0.0 | 0.00 | 0.00 | 0.00 | 63 | 1016.6 |
| 20260905014651 | 20 | 360 | 0.0 | 0.0 | 0.00 | 0.00 | 0.00 | 63 | 1016.6 |
| 20260905014200 | 20 | 252 | 0.0 | 0.0 | 0.00 | 0.00 | 0.00 | 62 | 1016.3 |
| 20260905013659 | 21 | 262 | 0.0 | 0.0 | 0.00 | 0.00 | 0.00 | 62 | 1016.3 |
| 20260905013153 | 21 | 252 | 0.0 | 0.0 | 0.00 | 0.00 | 0.00 | 61 | 1016.3 |
| 20260905012655 | 21 | 252 | 0.0 | 0.0 | 0.00 | 0.00 | 0.00 | 61 | 1016.3 |
| 20260905012158 | 21 | 252 | 0.0 | 0.0 | 0.00 | 0.00 | 0.00 | 61 | 1016.3 |
| 20260905011657 | 21 | 248 | 1.6 | 0.0 | 0.00 | 0.00 | 0.00 | 61 | 1016.3 |
| 20260905011202 | 21 | 242 | 3.2 | 0.0 | 0.00 | 0.00 | 0.00 | 61 | 1016.3 |
| 20260905010708 | 21 | 286 | 1.6 | 0.0 | 0.00 | 0.00 | 0.00 | 61 | 1016.3 |
| 20260905010152 | 21 | 257 | 1.6 | 0.0 | 0.00 | 0.00 | 0.00 | 61 | 1016.3 |
| 20260905005653 | 21 | 255 | 1.6 | 0.0 | 0.00 | 0.00 | 0.00 | 61 | 1016.2 |
| 20260905005204 | 21 | 272 | 0.0 | 0.0 | 0.00 | 0.00 | 0.00 | 60 | 1016.2 |
| 20260905004651 | 21 | 236 | 0.0 | 0.0 | 0.00 | 0.00 | 0.00 | 60 | 1016.2 |
| 20260905004153 | 21 | 360 | 0.0 | 0.0 | 0.00 | 0.00 | 0.00 | 59 | 1016.1 |
| 20260905003651 | 22 | 232 | 0.0 | 0.0 | 0.00 | 0.00 | 0.00 | 59 | 1016.1 |
| 20260905003205 | 22 | 227 | 0.0 | 0.0 | 0.00 | 0.00 | 0.00 | 58 | 1016.1 |
| 20260905002651 | 22 | 276 | 0.0 | 0.0 | 0.00 | 0.00 | 0.00 | 58 | 1016.1 |
| 20260905002156 | 22 | 290 | 1.6 | 0.0 | 0.00 | 0.00 | 0.00 | 58 | 1016.1 |
| 20260905001659 | 22 | 315 | 1.6 | 0.0 | 0.00 | 0.00 | 0.00 | 57 | 1016.1 |
| 20260905001155 | 22 | 279 | 1.6 | 0.0 | 0.00 | 0.00 | 0.00 | 57 | 1016.0 |
| 20260905000649 | 22 | 294 | 1.6 | 0.0 | 0.00 | 0.00 | 0.00 | 56 | 1016.0 |
| 20260905000204 | 22 | 187 | 0.0 | 0.0 | 0.00 | 0.00 | 0.00 | 56 | 1016.0 |
| 20260904235705 | 22 | 239 | 0.0 | 0.0 | 0.00 | 0.00 | 0.00 | 56 | 1015.8 |
| 20260904235207 | 22 | 254 | 0.0 | 0.0 | 0.00 | 0.00 | 0.00 | 56 | 1015.8 |
| 20260904234652 | 22 | 191 | 0.0 | 0.0 | 0.00 | 0.00 | 0.00 | 56 | 1015.8 |
| 20260904234207 | 22 | 225 | 0.0 | 0.0 | 0.00 | 0.00 | 0.00 | 55 | 1015.6 |
| 20260904233708 | 22 | 190 | 0.0 | 0.0 | 0.00 | 0.00 | 0.00 | 55 | 1015.6 |
| 20260904233153 | 22 | 200 | 0.0 | 0.0 | 0.00 | 0.00 | 0.00 | 55 | 1015.6 |
| 20260904232701 | 22 | 217 | 0.0 | 0.0 | 0.00 | 0.00 | 0.00 | 55 | 1015.5 |
| 20260904232209 | 22 | 203 | 0.0 | 0.0 | 0.00 | 0.00 | 0.00 | 55 | 1015.5 |
| 20260904231653 | 22 | 360 | 0.0 | 0.0 | 0.00 | 0.00 | 0.00 | 55 | 1015.5 |
| 20260904231205 | 23 | 194 | 0.0 | 0.0 | 0.00 | 0.00 | 0.00 | 55 | 1015.6 |
| 20260904230700 | 23 | 131 | 1.6 | 0.0 | 0.00 | 0.00 | 0.00 | 55 | 1015.6 |
| 20260904230154 | 23 | 224 | 1.6 | 0.0 | 0.00 | 0.00 | 0.00 | 55 | 1015.6 |
| 20260904225649 | 23 | 192 | 1.6 | 0.0 | 0.00 | 0.00 | 0.00 | 55 | 1015.5 |
| 20260904225200 | 23 | 180 | 1.6 | 0.0 | 0.00 | 0.00 | 0.00 | 55 | 1015.5 |
| 20260904224701 | 23 | 215 | 0.0 | 0.0 | 0.00 | 0.00 | 0.00 | 54 | 1015.5 |
| 20260904224202 | 23 | 280 | 0.0 | 0.0 | 0.00 | 0.00 | 0.00 | 54 | 1015.5 |
| 20260904223706 | 23 | 169 | 0.0 | 0.0 | 0.00 | 0.00 | 0.00 | 55 | 1015.5 |
| 20260904223155 | 23 | 252 | 0.0 | 0.0 | 0.00 | 0.00 | 0.00 | 55 | 1015.5 |
| 20260904222702 | 23 | 200 | 0.0 | 0.0 | 0.00 | 0.00 | 0.00 | 55 | 1015.5 |
| 20260904222205 | 23 | 186 | 0.0 | 0.0 | 0.00 | 0.00 | 0.00 | 55 | 1015.5 |
| 20260904221709 | 22 | 157 | 0.0 | 0.0 | 0.00 | 0.00 | 0.00 | 55 | 1015.5 |
| 20260904221154 | 22 | 254 | 0.0 | 0.0 | 0.00 | 0.00 | 0.00 | 55 | 1015.6 |
| 20260904220659 | 22 | 236 | 0.0 | 0.0 | 0.00 | 0.00 | 0.00 | 55 | 1015.6 |
| 20260904220153 | 22 | 260 | 0.0 | 0.0 | 0.00 | 0.00 | 0.00 | 54 | 1015.6 |
| 20260904215659 | 22 | 215 | 0.0 | 0.0 | 0.00 | 0.00 | 0.00 | 54 | 1015.5 |
| 20260904215147 | 22 | 200 | 0.0 | 0.0 | 0.00 | 0.00 | 0.00 | 54 | 1015.5 |
| 20260904214656 | 23 | 222 | 0.0 | 0.0 | 0.00 | 0.00 | 0.00 | 54 | 1015.5 |
| 20260904214204 | 23 | 184 | 0.0 | 0.0 | 0.00 | 0.00 | 0.00 | 54 | 1015.4 |
| 20260904213702 | 23 | 161 | 0.0 | 0.0 | 0.00 | 0.00 | 0.00 | 54 | 1015.4 |
| 20260904213208 | 23 | 198 | 0.0 | 0.0 | 0.00 | 0.00 | 0.00 | 54 | 1015.4 |
| 20260904212659 | 23 | 360 | 0.0 | 0.0 | 0.00 | 0.00 | 0.00 | 54 | 1015.3 |
| 20260904212205 | 23 | 220 | 0.0 | 0.0 | 0.00 | 0.00 | 0.00 | 54 | 1015.3 |
| 20260904211648 | 23 | 159 | 0.0 | 0.0 | 0.00 | 0.00 | 0.00 | 53 | 1015.3 |
| 20260904211156 | 23 | 244 | 0.0 | 0.0 | 0.00 | 0.00 | 0.00 | 53 | 1014.5 |
| 20260904210705 | 23 | 138 | 0.0 | 0.0 | 0.00 | 0.00 | 0.00 | 53 | 1014.5 |
| 20260904210153 | 23 | 248 | 0.0 | 0.0 | 0.00 | 0.00 | 0.00 | 53 | 1014.5 |
| 20260904205701 | 23 | 204 | 0.0 | 0.0 | 0.00 | 0.00 | 0.00 | 52 | 1014.7 |
| 20260904205207 | 23 | 207 | 0.0 | 0.0 | 0.00 | 0.00 | 0.00 | 52 | 1014.7 |
| 20260904204709 | 23 | 210 | 0.0 | 0.0 | 0.00 | 0.00 | 0.00 | 52 | 1014.7 |
| 20260904204153 | 23 | 298 | 0.0 | 0.0 | 0.00 | 0.00 | 0.00 | 52 | 1014.7 |
| 20260904203659 | 23 | 200 | 0.0 | 0.0 | 0.00 | 0.00 | 0.00 | 52 | 1014.7 |
| 20260904203159 | 23 | 229 | 0.0 | 0.0 | 0.00 | 0.00 | 0.00 | 52 | 1014.7 |
| 20260904202705 | 23 | 132 | 0.0 | 0.0 | 0.00 | 0.00 | 0.00 | 52 | 1014.5 |
| 20260904202200 | 23 | 183 | 0.0 | 0.0 | 0.00 | 0.00 | 0.00 | 52 | 1014.5 |
| 20260904201705 | 23 | 164 | 1.6 | 0.0 | 0.00 | 0.00 | 0.00 | 52 | 1014.5 |
| 20260904201148 | 23 | 360 | 0.0 | 0.0 | 0.00 | 0.00 | 0.00 | 51 | 1014.7 |
| 20260904200651 | 23 | 252 | 0.0 | 0.0 | 0.00 | 0.00 | 0.00 | 51 | 1014.7 |
| 20260904200203 | 23 | 234 | 0.0 | 0.0 | 0.00 | 0.00 | 0.00 | 51 | 1014.7 |
| 20260904195651 | 23 | 360 | 0.0 | 0.0 | 0.00 | 0.00 | 0.00 | 51 | 1014.6 |
| 20260904195156 | 23 | 236 | 0.0 | 0.0 | 0.00 | 0.00 | 0.00 | 51 | 1014.6 |
| 20260904194656 | 23 | 360 | 0.0 | 0.0 | 0.00 | 0.00 | 0.00 | 50 | 1014.6 |
| 20260904194159 | 23 | 224 | 0.0 | 0.0 | 0.00 | 0.00 | 0.00 | 50 | 1014.6 |
| 20260904193706 | 23 | 158 | 0.0 | 0.0 | 0.00 | 0.00 | 0.00 | 50 | 1014.6 |
| 20260904193206 | 23 | 213 | 0.0 | 0.0 | 0.00 | 0.00 | 0.00 | 50 | 1014.6 |
| 20260904192658 | 23 | 192 | 0.0 | 0.0 | 0.00 | 0.00 | 0.00 | 50 | 1014.4 |
| 20260904192202 | 24 | 176 | 0.0 | 0.0 | 0.00 | 0.00 | 0.00 | 49 | 1014.4 |
| 20260904191654 | 24 | 200 | 0.0 | 0.0 | 0.00 | 0.00 | 0.00 | 49 | 1014.4 |
| 20260904191202 | 24 | 190 | 0.0 | 0.0 | 0.00 | 0.00 | 0.00 | 49 | 1014.4 |
| 20260904190703 | 24 | 360 | 0.0 | 0.0 | 0.00 | 0.00 | 0.00 | 49 | 1014.4 |
| 20260904190205 | 24 | 186 | 0.0 | 0.0 | 0.00 | 0.00 | 0.00 | 49 | 1014.4 |
| 20260904185648 | 24 | 186 | 0.0 | 0.0 | 0.00 | 0.00 | 0.00 | 49 | 1014.3 |
| 20260904185159 | 24 | 360 | 0.0 | 0.0 | 0.00 | 0.00 | 0.00 | 48 | 1014.3 |
| 20260904184701 | 25 | 69 | 0.0 | 0.0 | 0.00 | 0.00 | 0.00 | 48 | 1014.3 |
| 20260904184207 | 25 | 225 | 0.0 | 0.0 | 0.00 | 0.00 | 0.00 | 48 | 1014.2 |
| 20260904183659 | 25 | 208 | 0.0 | 0.0 | 0.00 | 0.00 | 0.00 | 48 | 1014.2 |
| 20260904183158 | 25 | 125 | 0.0 | 0.0 | 0.00 | 0.00 | 0.00 | 47 | 1014.2 |
| 20260904182704 | 25 | 239 | 0.0 | 0.0 | 0.00 | 0.00 | 0.00 | 46 | 1013.7 |
| 20260904182205 | 25 | 211 | 0.0 | 0.0 | 0.00 | 0.00 | 0.00 | 46 | 1013.7 |
| 20260904181652 | 25 | 257 | 0.0 | 0.0 | 0.00 | 0.00 | 0.00 | 46 | 1013.7 |
| 20260904181159 | 25 | 275 | 0.0 | 0.0 | 0.00 | 0.00 | 0.00 | 45 | 1013.9 |
| 20260904180705 | 25 | 223 | 0.0 | 0.0 | 0.00 | 0.00 | 0.00 | 45 | 1013.9 |
| 20260904180153 | 26 | 360 | 1.6 | 0.0 | 0.00 | 0.00 | 0.00 | 45 | 1013.9 |
| 20260904175648 | 26 | 198 | 0.0 | 0.0 | 0.00 | 0.00 | 0.00 | 44 | 1013.8 |
| 20260904175210 | 26 | 215 | 0.0 | 0.0 | 0.00 | 0.00 | 0.00 | 44 | 1013.8 |
| 20260904174658 | 26 | 203 | 1.6 | 0.0 | 0.00 | 0.00 | 0.00 | 44 | 1013.8 |
| 20260904174157 | 26 | 246 | 1.6 | 0.0 | 0.00 | 0.00 | 0.00 | 44 | 1013.6 |
| 20260904173659 | 26 | 177 | 1.6 | 0.0 | 0.00 | 0.00 | 0.00 | 43 | 1013.6 |
| 20260904173207 | 26 | 230 | 1.6 | 0.0 | 0.00 | 0.00 | 0.00 | 43 | 1013.6 |
| 20260904172657 | 26 | 275 | 1.6 | 0.0 | 0.00 | 0.00 | 0.00 | 43 | 1013.7 |
| 20260904172200 | 26 | 360 | 1.6 | 0.0 | 0.00 | 0.00 | 0.00 | 42 | 1013.7 |
| 20260904171702 | 26 | 252 | 1.6 | 0.0 | 0.00 | 0.00 | 0.00 | 42 | 1013.7 |